Easy to use

vPilot, FSInn, and Squawkbox

VATSIM has 3 different client software available to choose by the user. The 3 different softwares are relatively easy to use and enjoyable to the user's experience. The software's operating manual is available to download in case user has not been able to fully operate the software to get a real working pilot experience.

Radar that functions similarly to real ATC's radar

EuroScope & VRC

VATSIM uses an advanced radar client simulating real ATC experience in the real world. Although it said to be advanced, both radar clients are very easy to use. Another interesting point is VATSIM has the technology to break the limit between simulation and real life experience.

With VATSIM, you can learn more about aviation.
You can also discuss with other aviation geek.

Unforgettable Experience

Current Activity

No controllers currently online!

Pilot

Callsign Name Route
AXM501Ryan (1462749)WSSS-WADD
GIA290Raia Arsya WALL (1368718)WIII-WARA

*This information may not be up to date.

METAR

Airport Name - Location (ICAO) METAR
Sultan Hasanuddin - Makassar (WAAA)METAR WAAA 122100Z 12002KT 8000 SCT019 24/24 Q1009|NOSIG=
I Gusti Ngurah Rai - Denpasar (WADD)METAR WADD 122100Z 32004KT 9999 FEW017 27/24 Q1009|NOSIG=
Ahmad Yani - Semarang (WAHS)METAR WAHS 122100Z 13003KT 6000 SCT014 27/24 Q1009|NOSIG=
Juanda - Surabaya (WARR)METAR WARR 122100Z 26004KT 4000 HZ FEW020 26/23 Q1009|NOSIG=
Soekarno Hatta - Jakarta (WIII)METAR WIII 122030Z VRB04KT 2500 BR SCT020 25/23 Q1009|NOSIG=
Halim Perdana Kusuma - Jakarta (WIHH)There is no METAR for Halim Perdana Kusuma - Jakarta.
Kualanamu International Airport - Deli Serdang (WIMM)METAR WIMM 122100Z 24004KT 4000 BR SCT017 25/25 Q1009|NOSIG=

*METAR resource from BMKG. This information may not be up to date.

VATSIM Indonesia vACC VATSIM South East Asia VATSIM Asia